Greenville, AL

5:58 PM CDT on October 18, 2017 (GMT -0500)
Greenville Municipal

Weather History for KPRN - December, 2012

Change the Weather History Date:

Wednesday, December 19, 2012

  Actual Average Record
Temperature  
Mean Temperature 54 °F -  
Max Temperature 71 °F 59 °F 79 °F (1931)
Min Temperature 37 °F 35 °F 14 °F (1981)
Degree Days  
Heating Degree Days 11    
Growing Degree Days 4 (Base 50)    
Moisture  
Dew Point 44 °F    
Average Humidity 70    
Maximum Humidity 90    
Minimum Humidity 36    
Precipitation  
Precipitation 0.00 in - - ()
Sea Level Pressure  
Sea Level Pressure 30.03 in    
Wind  
Wind Speed 3 mph (SSE)    
Max Wind Speed 10 mph    
Max Gust Speed 16 mph    
Visibility 10 miles    
Events      
Averages and records for this station are not official NWS values.
T = Trace of Precipitation, MM = Missing Value Source: NWS Daily Summary

Daily Weather History Graph

Daily Weather History Graph

Search for Another Location

Airport or City:

Trip Planner

Search our weather history database for the weather conditions in past years. The results will help you decide how hot, cold, wet, or windy it might be!

Date:

Astronomy

Dec. 19, 2012 Rise Set
Actual Time 6:41 AM CST 4:45 PM CST
Civil Twilight 6:14 AM CST 5:12 PM CST
Nautical Twilight 5:44 AM CST 5:43 PM CST
Astronomical Twilight 5:14 AM CST 6:13 PM CST
Moon 11:13 AM CST (12/19) 11:47 PM CST (12/19)
Length of Visible Light 10h 58m
Length of Day
10h 04m
Waxing Crescent, 45% of the Moon is Illuminated
Dec 19
Waxing Crescent
Dec 19
First Quarter
Dec 28
Full
Jan 4
Last Quarter
Jan 11
New

Hourly Weather History & Observations

Time (CST) Temp. Windchill Dew Point Humidity Pressure Visibility Wind Dir Wind Speed Gust Speed Precip Events Conditions
12:56 AM 42.1 °F - 39.0 °F 89% 30.01 in 10.0 mi Calm Calm - N/A   Clear
1:56 AM 42.1 °F 40.2 °F 39.0 °F 89% 30.02 in 10.0 mi SSE 3.5 mph - N/A   Clear
2:56 AM 42.1 °F - 37.9 °F 85% 30.02 in 10.0 mi Calm Calm - N/A   Clear
3:56 AM 39.0 °F - 36.0 °F 89% 30.02 in 10.0 mi Calm Calm - N/A   Clear
4:56 AM 37.9 °F - 35.1 °F 89% 30.04 in 10.0 mi Calm Calm - N/A   Clear
5:56 AM 37.9 °F - 35.1 °F 89% 30.05 in 10.0 mi Calm Calm - N/A   Clear
6:56 AM 37.0 °F - 34.0 °F 89% 30.07 in 10.0 mi Calm Calm - N/A   Clear
7:56 AM 44.1 °F - 41.0 °F 89% 30.09 in 10.0 mi Calm Calm - N/A   Clear
8:56 AM 52.0 °F - 46.9 °F 83% 30.09 in 10.0 mi Calm Calm - N/A   Clear
9:56 AM 60.1 °F - 50.0 °F 69% 30.09 in 10.0 mi Variable 4.6 mph - N/A   Clear
10:56 AM 64.0 °F - 48.9 °F 58% 30.08 in 10.0 mi South 8.1 mph - N/A   Clear
11:56 AM 68.0 °F - 48.0 °F 49% 30.05 in 10.0 mi South 5.8 mph - N/A   Clear
12:56 PM 70.0 °F - 44.1 °F 39% 30.02 in 10.0 mi South 10.4 mph - N/A   Clear
1:56 PM 71.1 °F - 43.0 °F 36% 30.01 in 10.0 mi South 8.1 mph - N/A   Clear
2:56 PM 71.1 °F - 43.0 °F 36% 29.99 in 10.0 mi SSE 6.9 mph 16.1 mph N/A   Clear
3:56 PM 70.0 °F - 44.1 °F 39% 30.00 in 10.0 mi SSE 4.6 mph - N/A   Clear
4:56 PM 64.9 °F - 44.1 °F 47% 29.99 in 10.0 mi SE 5.8 mph - N/A   Clear
5:56 PM 61.0 °F - 46.0 °F 58% 30.01 in 10.0 mi Calm Calm - N/A   Clear
6:56 PM 59.0 °F - 45.0 °F 60% 30.01 in 10.0 mi SSE 5.8 mph - N/A   Clear
7:56 PM 57.9 °F - 46.9 °F 67% 30.01 in 10.0 mi South 5.8 mph - N/A   Clear
8:56 PM 57.0 °F - 48.0 °F 72% 30.01 in 10.0 mi SSE 3.5 mph - N/A   Clear
9:56 PM 52.0 °F - 48.0 °F 86% 30.02 in 10.0 mi SSE 3.5 mph - N/A   Clear
10:56 PM 53.1 °F - 50.0 °F 89% 30.02 in 10.0 mi SE 3.5 mph - N/A   Mostly Cloudy
11:56 PM 54.0 °F - 51.1 °F 90% 29.96 in 10.0 mi SE 6.9 mph - N/A   Clear